This demonstration page uses our WeatherBlox Daily Observations layout. Learn more.

Left ArrowRight Arrow

39.01783, -85.05884

Hourly Observations for January 15, 2021

Temp ( °F °C ) Dew Point ( °F °C ) Humidity (%) Winds ( mph kmh ) Pressure ( in mb ) Visibility ( mi km ) Precip ( " mm )
12:52 am 00:52 Cloudy 47 8.3 32 0 56 56 S 9 15 29.56 1001 10 16 0.00 0.00
1:52 am 01:52 Cloudy 46 7.8 32 0 58 58 S 8 13 29.55 1001 10 16 0.00 0.00
2:52 am 02:52 Cloudy 45 7.2 35 1.7 68 68 WSW 7 11 29.56 1001 10 16 0.00 0.00
3:32 am 03:32 Cloudy with Light Rain 41 5 37 2.8 86 86 WSW 9 15 29.60 1002 3 5 0.00 0.00
3:38 am 03:38 Cloudy with Light Rain 41 5 37 2.8 86 86 W 14 22 29.60 1002 3 5 0.00 0.00
3:50 am 03:50 Cloudy with Light Rain 39 4 36 2 87 87 W 13 20 29.59 1002 3 5 0.01 0.25
3:52 am 03:52 Cloudy with Light Rain 40 4.4 36 2.2 86 86 W 15 24 29.56 1001 3 5 0.01 0.25
4:28 am 04:28 Cloudy with Light Rain 38 3.3 35 1.7 89 89 WSW 9 15 29.59 1002 3 5 0.01 0.25
4:48 am 04:48 Cloudy with Light Rain 37 3 34 1 87 87 WSW 8 13 29.59 1002 6 10 0.02 0.51
4:52 am 04:52 Cloudy with Light Rain 37 2.8 34 1.1 89 89 W 12 19 29.56 1001 6 10 0.02 0.51
5:24 am 05:24 Cloudy with Light Rain 37 2.8 34 1.1 89 89 WSW 7 11 29.60 1002 6 10 0.02 0.51
5:52 am 05:52 Cloudy with Light Rain 36 2.2 33 0.6 89 89 WSW 9 15 29.56 1001 8 13 0.04 1.02
6:28 am 06:28 Cloudy 36 2.2 33 0.6 89 89 SSW 5 7 29.60 1002 10 16 0.01 0.25
6:39 am 06:39 Cloudy with Light Rain 36 2.2 33 0.6 89 89 SSW 6 9 29.60 1002 10 16 0.01 0.25
6:52 am 06:52 Cloudy 36 2.2 33 0.6 89 89 S 6 9 29.56 1001 10 16 0.01 0.25
7:16 am 07:16 Cloudy 36 2.2 33 0.6 89 89 SSW 8 13 29.60 1002 7 11 0.00 0.00
7:52 am 07:52 Cloudy 36 2.2 33 0.6 89 89 SSW 9 15 29.56 1001 7 11 0.00 0.00
8:03 am 08:03 Cloudy 36 2.2 33 0.6 89 89 VRB 7 11 29.60 1002 8 13 0.00 0.00
8:11 am 08:11 Cloudy with Light Snow 34 1.1 31 -0.6 89 89 WSW 12 19 29.61 1003 4 6 0.00 0.00
8:24 am 08:24 Cloudy with Mist and Fog 34 1.1 30 -1.1 85 85 SW 14 22 29.61 1003 6 10 0.01 0.25
8:39 am 08:39 Mostly Cloudy 35 1.7 30 -1.1 82 82 WSW 9 15 29.61 1003 9 14 0.01 0.25
8:52 am 08:52 Mostly Cloudy 35 1.7 30 -1.1 82 82 WSW 10 17 29.58 1002 10 16 0.01 0.25
9:52 am 09:52 Mostly Sunny 37 2.8 30 -1.1 76 76 SW 10 17 29.59 1002 10 16 0.00 0.00
10:52 am 10:52 Mostly Sunny 39 3.9 28 -2.2 65 65 SW 12 19 29.59 1002 10 16 0.00 0.00
11:52 am 11:52 Mostly Cloudy 41 5 28 -2.2 60 60 SSW 13 20 29.57 1001 10 16 0.00 0.00
12:52 pm 12:52 Mostly Cloudy 43 6.1 26 -3.3 51 51 SSW 16 26 29.55 1001 10 16 0.00 0.00
1:52 pm 13:52 Mostly Cloudy 42 5.6 22 -5.6 45 45 SSW 13 20 29.53 1000 10 16 0.00 0.00
2:02 pm 14:02 Mostly Cloudy 41 5 23 -5 49 49 S 17 28 29.57 1001 7 11 0.00 0.00
2:14 pm 14:14 Cloudy with Light Rain 41 5 23 -5 49 49 S 14 22 29.57 1001 8 13 0.00 0.00
2:18 pm 14:18 Windy with Snow Likely 41 5 24 -4.4 51 51 S 20 31 29.57 1001 3 5 0.00 0.00
2:28 pm 14:28 Mostly Cloudy 40 4.4 25 -3.9 55 55 S 17 28 29.58 1002 4 6 0.00 0.00
2:36 pm 14:36 Mostly Cloudy with Light Snow 38 3.3 26 -3.3 62 62 S 9 15 29.58 1002 9 14 0.00 0.00
2:41 pm 14:41 Mostly Cloudy with Light Snow 38 3.3 26 -3.3 62 62 SSW 23 37 29.59 1002 2 3 0.00 0.00
2:48 pm 14:48 Mostly Cloudy with Light Snow 39 4 28 -2 65 65 SSW 13 20 29.59 1002 6 10 0.00 0.00
2:52 pm 14:52 Mostly Cloudy 39 3.9 29 -1.7 67 67 S 10 17 29.56 1001 10 16 0.00 0.00
3:18 pm 15:18 Cloudy with Light Snow 40 4.4 25 -3.9 55 55 SSW 18 30 29.59 1002 2 3 0.00 0.00
3:24 pm 15:24 Cloudy with Light Snow 37 2.8 27 -2.8 67 67 S 10 17 29.60 1002 7 11 0.00 0.00
3:28 pm 15:28 Cloudy 37 2.8 28 -2.2 70 70 S 8 13 29.60 1002 10 16 0.00 0.00
3:52 pm 15:52 Mostly Cloudy 40 4.4 26 -3.3 58 58 SSW 13 20 29.56 1001 10 16 0.00 0.00
4:52 pm 16:52 Mostly Cloudy 40 4.4 22 -5.6 49 49 SW 10 17 29.59 1002 10 16 0.00 0.00
5:52 pm 17:52 Cloudy 37 2.8 23 -5 57 57 S 5 7 29.61 1003 10 16 0.00 0.00
6:52 pm 18:52 Cloudy 35 1.7 23 -5 61 61 S 5 7 29.63 1004 10 16 0.00 0.00
7:52 pm 19:52 Cloudy 36 2.2 23 -5 59 59 SSE 3 6 29.63 1004 10 16 0.00 0.00
8:52 pm 20:52 Cloudy 35 1.7 24 -4.4 64 64 SSE 8 13 29.63 1003 10 16 0.00 0.00
9:52 pm 21:52 Cloudy 36 2.2 23 -5 59 59 SSW 8 13 29.64 1004 10 16 0.00 0.00
10:52 pm 22:52 Mostly Cloudy 34 1.1 23 -5 64 64 SSW 6 9 29.62 1003 10 16 0.00 0.00
11:52 pm 23:52 Cloudy 35 1.7 25 -3.9 67 67 WSW 5 7 29.62 1003 10 16 0.00 0.00

Powered by AerisWeather